This demonstration page uses our WeatherBlox Daily Observations layout. Learn more.

Hourly Observations for December 30, 2017

Temp ( °F °C ) Dew Point ( °F °C ) Humidity (%) Winds ( mph kmh ) Pressure ( in mb ) Visibility ( mi km ) Precip ( " mm )
12:15 am 00:15 Cloudy 23 -5 14 -10 68 68 Calm 30.27 1025 10 16.09344 0 0
12:35 am 00:35 Cloudy 23 -5 14 -10 68 68 Calm 30.27 1025 10 16.09344 0 0
12:55 am 00:55 Cloudy 25 -4 14 -10 63 63 Calm 30.27 1025 7 11.265408 0 0
1:15 am 01:15 Cloudy with Light Snow 23 -5 18 -8 80 80 SSE 5 7 30.27 1025 5 8.04672 0 0
1:35 am 01:35 Cloudy with Light Snow 23 -5 18 -8 80 80 Calm 30.27 1025 3 4.828032 0 0
1:55 am 01:55 Cloudy with Light Snow 23 -5 19 -7 86 86 Calm 30.24 1024 3 4.828032 0 0
2:15 am 02:15 Cloudy with Light Snow 23 -5 19 -7 86 86 SSE 3 6 30.24 1024 3 4.828032 0 0
2:35 am 02:35 Cloudy with Light Snow 21 -6 19 -7 93 93 S 3 6 30.24 1024 1.75 2.816352 0 0
2:55 am 02:55 Cloudy with Light Snow 21 -6 21 -6 100 100 S 3 6 30.24 1024 1.75 2.816352 0 0
3:15 am 03:15 Cloudy with Light Snow 21 -6 21 -6 100 100 S 6 9 30.21 1023 1.25 2.01168 0 0
3:35 am 03:35 Cloudy with Light Snow 21 -6 21 -6 100 100 S 6 9 30.21 1023 1.75 2.816352 0 0
3:55 am 03:55 Cloudy with Light Snow 21 -6 21 -6 100 100 S 6 9 30.21 1023 2 3.218688 0 0
4:15 am 04:15 Cloudy with Light Snow 21 -6 21 -6 100 100 S 6 9 30.21 1023 2.5 4.02336 0 0
4:35 am 04:35 Cloudy with Light Snow 21 -6 21 -6 100 100 S 7 11 30.18 1022 2.5 4.02336 0 0
4:55 am 04:55 Cloudy with Light Snow 21 -6 21 -6 100 100 S 5 7 30.18 1022 5 8.04672 0 0
5:15 am 05:15 Cloudy with Light Snow 23 -5 21 -6 93 93 S 6 9 30.18 1022 7 11.265408 0 0
5:35 am 05:35 Cloudy 23 -5 21 -6 93 93 S 5 7 30.18 1022 10 16.09344 0 0
5:55 am 05:55 Cloudy 23 -5 21 -6 93 93 S 6 9 30.15 1021 10 16.09344 0 0
6:15 am 06:15 Cloudy 23 -5 21 -6 93 93 S 7 11 30.15 1021 10 16.09344 0 0
6:35 am 06:35 Cloudy 23 -5 21 -6 93 93 S 3 6 30.15 1021 10 16.09344 0 0
6:55 am 06:55 Cloudy 23 -5 21 -6 93 93 S 6 9 30.15 1021 10 16.09344 0 0
7:15 am 07:15 Cloudy 23 -5 21 -6 93 93 S 6 9 30.15 1021 10 16.09344 0 0
7:35 am 07:35 Cloudy 23 -5 21 -6 93 93 S 6 9 30.15 1021 10 16.09344 0 0
7:55 am 07:55 Cloudy 23 -5 21 -6 93 93 S 5 7 30.15 1021 10 16.09344 0 0
8:15 am 08:15 Cloudy 23 -5 21 -6 93 93 S 3 6 30.15 1021 10 16.09344 0 0
8:35 am 08:35 Cloudy 23 -5 21 -6 93 93 S 3 6 30.15 1021 10 16.09344 0 0
8:55 am 08:55 Cloudy 23 -5 21 -6 93 93 SSE 6 9 30.12 1020 10 16.09344 0 0
9:15 am 09:15 Cloudy 23 -5 23 -5 100 100 S 7 11 30.12 1020 10 16.09344 0 0
9:35 am 09:35 Cloudy 25 -4 23 -5 93 93 S 7 11 30.12 1020 10 16.09344 0 0
9:55 am 09:55 Cloudy 27 -3 23 -5 86 86 S 6 9 30.12 1020 10 16.09344 0 0
10:15 am 10:15 Cloudy 27 -3 23 -5 86 86 S 8 13 30.09 1019 10 16.09344 0 0
10:35 am 10:35 Cloudy 27 -3 23 -5 86 86 SSW 7 11 30.09 1019 10 16.09344 0 0
10:55 am 10:55 Cloudy 28 -2 23 -5 80 80 S 5 7 30.06 1018 10 16.09344 0 0
11:15 am 11:15 Partly Cloudy 28 -2 23 -5 80 80 S 5 7 30.06 1018 10 16.09344 0 0
11:35 am 11:35 Sunny 30 -1 23 -5 75 75 WSW 3 6 30.03 1017 10 16.09344 0 0
11:55 am 11:55 Sunny 30 -1 23 -5 75 75 WSW 3 6 30.03 1017 10 16.09344 0 0
12:15 pm 12:15 Partly Cloudy 32 0 23 -5 69 69 WSW 5 7 30 1016 10 16.09344 0 0
12:35 pm 12:35 Partly Cloudy 32 0 23 -5 69 69 SW 5 7 30 1016 10 16.09344 0 0
12:55 pm 12:55 Mostly Cloudy 32 0 23 -5 69 69 Calm 30 1016 10 16.09344 0 0
1:15 pm 13:15 Cloudy 32 0 23 -5 69 69 Calm 30 1016 10 16.09344 0.01 0.254
1:35 pm 13:35 Cloudy 32 0 25 -4 75 75 WNW 8 13 29.97 1015 10 16.09344 0.01 0.254
1:55 pm 13:55 Cloudy 32 0 25 -4 75 75 WNW 5 7 29.97 1015 10 16.09344 0.01 0.254
2:15 pm 14:15 Cloudy 32 0 27 -3 80 80 W 5 7 29.97 1015 10 16.09344 0 0
2:35 pm 14:35 Cloudy 32 0 27 -3 80 80 NW 16 26 29.97 1015 10 16.09344 0 0
2:55 pm 14:55 Cloudy 34 1 27 -3 75 75 WNW 13 20 29.97 1015 10 16.09344 0 0
3:15 pm 15:15 Cloudy 34 1 27 -3 75 75 WNW 13 20 29.97 1015 10 16.09344 0 0
3:35 pm 15:35 Cloudy 34 1 25 -4 70 70 WNW 14 22 29.97 1015 10 16.09344 0 0
3:55 pm 15:55 Cloudy 34 1 23 -5 65 65 NW 14 22 29.97 1015 10 16.09344 0 0
4:15 pm 16:15 Cloudy 32 0 23 -5 69 69 NNW 15 24 30 1016 10 16.09344 0 0
4:35 pm 16:35 Cloudy 32 0 21 -6 64 64 NW 16 26 30 1016 10 16.09344 0 0
4:55 pm 16:55 Cloudy 32 0 21 -6 64 64 NNW 17 28 30 1016 10 16.09344 0 0
5:15 pm 17:15 Cloudy 32 0 23 -5 69 69 NNW 12 19 30.03 1017 10 16.09344 0 0
5:35 pm 17:35 Cloudy 30 -1 23 -5 75 75 N 12 19 30.06 1018 10 16.09344 0 0
5:55 pm 17:55 Cloudy 28 -2 21 -6 74 74 N 12 19 30.06 1018 10 16.09344 0 0
6:15 pm 18:15 Cloudy 28 -2 21 -6 74 74 N 15 24 30.09 1019 10 16.09344 0 0
6:35 pm 18:35 Cloudy 28 -2 19 -7 69 69 N 10 17 30.09 1019 10 16.09344 0 0
6:55 pm 18:55 Cloudy 28 -2 19 -7 69 69 NNW 12 19 30.09 1019 10 16.09344 0 0
7:15 pm 19:15 Partly Cloudy 27 -3 19 -7 74 74 NNW 20 31 30.12 1020 10 16.09344 0 0
7:35 pm 19:35 Clear 27 -3 18 -8 69 69 NNW 13 20 30.12 1020 10 16.09344 0 0
7:55 pm 19:55 Mostly Cloudy 28 -2 14 -10 55 55 NNW 10 17 30.15 1021 10 16.09344 0 0
8:15 pm 20:15 Cloudy 27 -3 12 -11 54 54 NNW 17 28 30.15 1021 10 16.09344 0 0
8:35 pm 20:35 Mostly Cloudy 27 -3 12 -11 54 54 NNW 15 24 30.18 1022 10 16.09344 0 0
8:55 pm 20:55 Clear 25 -4 10 -12 54 54 NW 14 22 30.18 1022 10 16.09344 0 0
9:15 pm 21:15 Clear 25 -4 10 -12 54 54 WNW 8 13 30.18 1022 10 16.09344 0 0
9:35 pm 21:35 Mostly Cloudy 27 -3 10 -12 50 50 NW 10 17 30.21 1023 10 16.09344 0 0
9:55 pm 21:55 Cloudy 25 -4 10 -12 54 54 N 12 19 30.21 1023 10 16.09344 0 0
10:15 pm 22:15 Cloudy 25 -4 14 -10 63 63 N 14 22 30.21 1023 10 16.09344 0 0
10:35 pm 22:35 Cloudy 23 -5 14 -10 68 68 NNW 15 24 30.24 1024 10 16.09344 0 0
10:55 pm 22:55 Cloudy 23 -5 14 -10 68 68 NW 16 26 30.24 1024 10 16.09344 0 0
11:15 pm 23:15 Cloudy 23 -5 14 -10 68 68 NNW 10 17 30.24 1024 10 16.09344 0 0
11:35 pm 23:35 Cloudy 23 -5 12 -11 63 63 NW 12 19 30.24 1024 10 16.09344 0 0
11:55 pm 23:55 Cloudy 23 -5 12 -11 63 63 N 12 19 30.27 1025 10 16.09344 0 0

Powered by AerisWeather